Location: Newark
(54.4000°N, 32.4500°E)
Time: 02:06:24
(UTC+00:00)

Envisat - Pass Details

Date: 24 January 2020
Orbit: 764 x 766 km, 98.1° (Epoch: 25 February)

Event Time Altitude Azimuth Distance (km) Brightness Sun altitude
Rises 05:04:55 0° 14° (NNE) 3,248 6.1 -6.9°
Reaches altitude 10° 05:07:14 10° 12° (NNE) 2,317 5.4 -6.6°
Maximum altitude 05:12:20 74° 289° (WNW) 802 3.0 -5.9°
Drops below altitude 10° 05:17:23 10° 205° (SSW) 2,300 5.5 -5.3°
Sets 05:19:41 0° 204° (SSW) 3,221 6.3 -5.0°
